GFSGL_925_spd_273.txt.gz
Wind_Speed
29 30 30 30 30 25 26 28 28 28 29 29 28 28 29 31 32 29 29 32 35 35 35 30 31 34 31 35 37 36 32 27 10 8 25 26 42 44 40 32 28 26 22
29 28 28 27 26 21 23 27 28 27 27 31 31 29 26 24 32 31 31 34 37 36 38 35 35 33 29 27 25 25 25 23 18 12 19 27 28 35 38 32 29 26 24
29 27 25 24 23 19 19 17 21 25 28 28 30 33 32 29 33 32 33 37 40 42 36 36 34 32 30 29 28 25 22 20 20 20 17 24 29 33 35 31 29 25 24
28 25 23 24 22 20 14 9 5 7 10 15 22 27 28 28 28 30 36 31 31 30 27 28 30 33 33 31 29 29 29 27 27 25 25 23 24 28 32 31 24 23 21
25 24 24 23 23 22 20 18 11 7 6 4 6 8 13 19 28 32 33 36 34 29 22 21 23 25 24 29 30 28 29 25 25 26 22 21 18 26 26 21 18 23 18
24 24 25 25 24 25 25 24 24 22 20 18 15 14 14 15 21 38 40 35 33 35 31 25 21 24 24 26 26 29 32 36 25 20 16 22 20 23 24 27 22 12 6
22 24 25 25 24 25 27 30 27 25 23 26 28 26 30 27 25 30 42 38 34 43 34 34 32 32 29 29 28 27 24 20 24 29 28 24 26 30 32 26 20 17 6
22 23 25 25 24 26 28 28 29 29 28 25 28 28 32 30 34 29 45 40 42 37 34 34 36 33 30 32 30 28 24 19 17 20 25 27 24 33 34 29 28 18 12
21 21 24 25 25 26 27 28 26 27 30 28 27 28 29 29 31 29 38 43 40 35 35 34 35 33 31 32 34 33 29 25 17 17 19 18 18 30 26 23 24 20 4
22 21 23 25 25 25 25 26 25 26 28 28 31 30 27 27 26 27 32 35 33 33 37 34 31 29 25 27 30 31 31 26 30 29 27 24 23 21 20 15 21 20 7
18 20 23 24 25 25 27 27 26 26 28 28 30 32 33 30 28 26 25 31 30 27 29 27 24 20 21 21 23 24 30 29 28 28 26 25 21 20 17 14 15 13 13
16 19 21 23 23 23 24 23 25 23 24 24 26 28 32 31 27 26 24 25 28 35 29 28 22 19 18 20 19 24 25 26 26 25 24 21 19 17 15 13 12 11 9
14 16 18 19 19 19 21 21 22 24 22 21 21 21 24 25 25 22 22 26 27 31 26 24 21 19 19 20 20 19 23 22 23 23 22 19 15 13 13 12 10 9 7
12 13 14 17 18 19 20 20 21 21 22 21 19 19 21 20 20 19 21 24 23 25 23 22 19 20 19 20 16 17 17 16 16 16 15 14 14 14 13 11 11 10 8
8 9 11 14 16 17 19 18 17 16 15 17 16 15 16 15 13 13 14 18 18 19 19 18 17 18 18 15 12 13 14 13 11 11 12 12 12 12 12 12 11 11 10
8 8 8 8 10 12 14 17 14 12 11 11 10 6 9 10 9 10 12 12 14 16 14 16 15 15 15 14 13 12 12 11 10 9 9 10 12 14 14 15 14 13 13
6 7 7 6 7 8 8 7 9 8 9 7 6 6 6 7 6 7 8 10 10 13 9 13 12 14 14 13 12 11 11 10 10 11 12 13 14 14 15 17 16 16 17
8 8 7 7 6 6 5 5 5 4 4 4 4 4 4 5 5 6 8 11 13 8 8 10 11 11 12 12 13 15 14 14 15 15 16 16 17 18 18 19 19 20 19
12 12 11 10 9 8 8 7 6 4 2 2 2 2 3 5 5 6 6 8 9 11 11 11 9 10 11 12 14 16 17 17 18 18 20 20 21 21 23 22 20 20 18
17 16 15 14 13 13 11 10 9 7 6 6 6 5 5 6 8 10 12 14 15 15 15 16 15 15 15 16 16 16 18 20 21 21 23 23 24 23 25 24 23 21 21
22 21 20 18 18 17 15 15 13 11 10 9 9 8 8 10 12 14 15 17 20 21 22 22 22 21 21 20 21 22 23 25 25 25 25 25 25 25 25 24 23 22 19
25 24 24 24 21 20 19 16 14 13 11 11 12 11 11 12 15 16 17 19 19 20 21 22 24 23 23 23 23 24 25 27 27 26 26 25 24 24 24 22 21 20 17
27 25 24 24 22 20 18 17 16 15 15 14 14 14 13 15 16 18 19 19 19 19 18 18 20 21 20 21 21 22 23 25 24 23 23 22 21 22 22 21 19 17 17
28 26 25 25 22 21 19 18 18 18 17 16 14 14 15 17 17 15 15 17 17 17 15 15 15 16 16 17 18 18 19 19 19 18 17 17 18 17 17 16 17 16 16
28 27 26 25 22 19 18 19 19 19 19 17 14 13 15 14 14 16 17 15 15 15 13 13 13 12 13 13 15 15 15 14 14 13 13 13 14 14 14 14 14 14 13
26 26 25 22 21 20 18 16 18 18 17 15 13 11 11 13 16 16 14 13 13 12 11 11 11 11 11 12 12 12 11 11 10 11 10 10 12 12 12 13 12 13 12

GFSGL_925_spd_276.txt.gz
Wind_Speed
27 29 29 29 29 30 30 30 30 30 30 30 29 28 29 30 28 30 29 27 29 27 29 32 38 33 29 29 31 35 31 26 10 8 23 29 44 45 43 43 39 35 30
28 29 28 28 27 28 29 29 26 30 32 31 29 29 28 26 25 23 26 26 30 25 33 31 37 31 31 27 24 21 26 24 11 12 21 26 35 43 46 39 36 33 30
28 27 28 26 26 28 29 28 27 26 28 30 29 28 29 31 31 31 24 26 32 31 36 36 34 35 33 33 30 27 22 18 18 16 10 19 24 35 37 36 34 28 24
27 26 25 26 27 27 27 24 20 16 17 23 28 29 28 29 30 32 31 30 32 33 38 38 34 36 35 35 32 30 26 22 20 23 21 22 23 29 29 30 28 27 26
27 26 26 26 25 25 24 23 22 16 10 7 12 20 25 27 30 30 28 26 30 30 28 31 33 34 33 35 33 30 30 24 23 21 17 18 18 28 28 22 21 27 21
27 26 28 26 26 26 25 23 25 25 22 16 10 6 4 11 16 20 23 27 28 30 28 27 27 27 27 24 25 27 30 33 20 16 11 19 20 27 24 27 27 15 5
26 27 27 27 25 25 25 25 26 27 27 26 24 21 22 21 17 17 23 26 26 29 31 33 29 28 27 26 24 23 21 19 22 28 27 22 27 28 33 30 26 19 9
22 24 25 26 24 25 25 27 26 27 30 29 30 27 24 25 28 28 32 34 33 32 29 31 36 34 33 30 27 25 21 18 18 20 24 27 25 33 33 30 30 23 16
21 23 24 23 22 24 25 25 25 27 30 30 32 31 29 30 30 34 35 29 34 32 31 28 29 36 31 31 34 31 27 21 15 16 18 22 21 30 33 33 30 26 5
18 19 20 20 22 22 25 25 26 24 28 30 33 33 33 36 34 32 36 31 31 28 31 28 28 35 29 28 34 34 30 24 29 30 28 25 22 21 24 26 31 26 11
13 14 18 20 23 24 26 27 27 27 29 30 34 37 37 35 35 31 31 30 25 27 26 27 29 28 23 23 26 29 31 31 29 33 31 29 25 21 19 18 22 20 12
10 14 17 19 22 23 25 27 29 28 28 28 27 28 32 34 34 31 28 28 27 32 29 27 26 24 23 24 26 26 29 31 32 32 31 27 25 22 20 18 16 13 9
9 13 15 18 20 23 25 26 26 27 21 19 21 20 23 28 28 27 26 27 28 34 30 27 25 27 25 27 23 24 26 26 29 30 27 25 22 20 18 15 13 11 9
6 9 12 14 17 19 21 22 24 23 22 19 17 17 20 25 24 22 22 23 25 28 27 26 24 24 24 22 23 22 21 20 21 24 22 21 19 16 15 13 12 11 9
1 4 7 9 11 14 18 17 18 17 17 18 16 16 20 19 14 15 17 18 19 19 20 21 22 22 20 20 19 18 17 14 15 16 18 18 18 16 15 13 11 13 8
5 1 2 3 6 8 10 13 12 12 11 13 12 12 15 13 13 13 13 14 14 12 15 16 17 15 15 15 15 15 13 11 10 10 12 13 14 15 15 15 12 12 12
9 7 5 4 3 2 2 3 4 6 10 11 10 10 10 9 9 9 9 8 6 5 10 11 11 10 9 9 8 9 11 10 10 9 9 11 12 12 13 14 15 15 15
15 14 13 11 8 5 3 3 3 4 3 4 7 7 5 4 5 5 5 6 2 2 1 1 2 4 6 7 8 8 9 10 10 11 11 12 13 15 18 19 20 20 19
19 18 15 13 11 9 8 6 5 2 1 2 2 2 2 3 2 2 3 3 5 6 5 4 4 6 7 8 9 10 11 13 14 15 16 16 17 19 21 21 20 20 19
22 19 17 15 13 12 10 9 7 6 4 3 3 3 2 2 4 7 9 10 10 10 10 10 9 9 10 10 10 11 12 13 15 17 18 18 18 20 23 23 22 21 21
27 23 21 19 18 16 15 13 10 9 9 6 5 6 7 7 8 9 10 12 14 15 16 16 16 16 15 16 16 17 17 18 18 19 20 20 20 22 22 22 21 21 19
29 27 25 25 22 19 18 15 14 13 12 11 10 9 9 10 12 12 13 13 14 14 12 14 14 15 15 16 16 17 19 20 19 19 20 19 20 21 21 21 21 20 20
28 26 24 23 22 19 18 17 17 17 17 17 14 12 11 12 12 13 14 15 14 14 14 14 14 14 13 13 13 15 17 17 16 15 15 16 16 17 17 17 17 17 18
28 27 26 25 23 22 21 19 18 18 19 19 18 16 14 12 11 12 13 14 14 14 13 12 12 12 11 11 12 12 13 13 13 13 13 13 13 13 13 14 15 15 15
27 27 26 26 24 22 20 19 19 19 18 18 19 18 15 12 10 10 11 14 15 12 10 10 10 9 9 9 9 10 9 9 10 10 10 10 11 11 12 12 12 12 12
24 25 25 22 20 19 18 16 15 15 16 18 16 12 9 8 8 10 11 11 10 8 7 6 7 7 8 8 9 9 9 9 8 9 9 9 10 11 11 11 11 12 12

GFSGL_925_spd_279.txt.gz
Wind_Speed
23 24 26 27 29 29 28 30 30 32 31 32 31 31 31 31 31 31 31 25 22 26 31 34 32 33 29 38 31 28 26 19 8 5 18 21 33 40 38 42 47 50 48
25 25 26 27 29 28 28 31 31 32 32 31 30 31 30 29 28 28 27 25 26 26 28 24 32 32 31 34 34 30 27 24 11 6 13 17 22 33 35 38 37 41 38
25 24 26 27 28 29 29 29 29 31 31 28 26 30 30 30 30 28 22 20 21 24 27 31 28 34 31 30 30 31 30 27 23 17 10 20 21 34 35 32 32 32 36
26 25 25 28 29 29 29 30 28 28 27 21 18 23 29 30 31 31 29 29 28 26 28 28 29 35 34 37 34 33 33 27 22 22 19 17 21 25 29 31 28 31 31
27 27 27 28 28 28 27 28 26 24 24 18 12 12 22 28 29 28 28 31 30 31 34 30 31 35 39 43 40 34 33 25 21 20 16 17 19 29 29 25 24 29 26
25 26 27 28 27 26 26 27 26 26 25 22 20 15 5 16 27 29 27 27 28 25 20 24 29 36 36 36 35 35 38 34 22 16 12 19 23 28 24 31 31 22 6
22 24 26 27 27 25 25 26 26 25 26 25 25 24 22 16 5 13 21 18 15 17 19 22 23 24 28 29 28 27 25 25 26 29 26 23 25 31 32 29 27 22 10
20 23 25 25 25 24 24 25 26 24 24 23 25 28 26 23 21 24 26 26 26 23 20 21 25 27 28 31 30 28 22 17 15 18 24 29 28 34 32 30 29 24 18
20 21 21 22 22 22 22 22 23 21 24 24 25 28 29 28 26 26 33 32 32 30 27 26 27 28 25 28 33 32 30 23 15 14 16 20 20 30 32 33 29 26 6
15 15 16 17 19 20 20 21 21 21 19 24 30 31 31 33 32 30 32 32 32 30 31 31 28 28 25 29 34 36 29 23 32 34 32 28 23 22 20 24 36 25 14
9 11 12 14 15 15 18 21 21 19 23 25 28 33 33 34 35 34 34 34 30 28 27 27 27 28 27 27 31 31 31 35 35 39 33 28 26 22 18 21 27 26 14
6 8 10 13 15 16 18 20 22 22 23 23 24 27 31 31 33 34 34 34 33 33 28 29 27 28 26 26 30 30 32 37 36 35 33 28 24 20 20 21 21 13 7
3 6 9 11 14 16 18 20 22 24 20 18 19 19 21 26 27 28 29 30 32 34 32 28 26 27 26 28 24 28 28 30 33 29 29 25 22 23 22 20 16 12 10
2 4 6 8 11 13 16 18 22 22 20 19 17 16 17 24 23 21 23 24 24 28 25 25 23 25 28 30 27 25 25 27 28 30 27 24 22 20 19 17 16 14 12
6 4 4 4 7 10 13 15 17 18 16 16 17 18 19 18 17 18 21 22 22 22 24 25 26 26 27 26 25 22 20 20 23 24 24 22 19 17 14 12 12 11 6
9 8 6 3 3 6 10 13 11 12 13 14 15 17 17 15 15 16 18 17 16 13 20 20 18 17 19 19 19 18 15 14 14 15 15 16 15 14 12 11 9 8 8
15 12 10 7 4 2 2 4 6 6 11 13 12 11 12 11 10 9 10 12 13 12 18 14 15 14 14 13 12 11 12 12 12 12 12 11 11 12 13 12 10 10 10
18 16 14 11 9 6 3 1 3 4 4 4 7 8 8 8 8 8 7 7 10 12 11 9 9 9 9 9 9 9 9 9 7 7 8 10 13 14 15 15 15 14 13
21 19 16 13 11 10 8 6 3 2 2 2 3 3 4 4 4 3 3 6 7 6 5 5 5 4 5 5 6 6 7 8 9 10 13 14 15 16 15 16 15 16 16
25 22 20 18 16 14 11 9 6 4 2 1 0 1 2 2 2 4 6 8 8 8 7 6 4 3 3 4 5 6 8 10 12 14 16 16 17 18 19 19 19 18 19
30 26 23 18 17 15 13 13 11 10 8 7 5 0 3 4 4 4 5 7 8 9 10 10 11 12 12 11 12 12 13 14 16 16 17 19 19 21 22 21 20 20 19
31 28 26 24 21 20 19 16 14 13 11 11 10 7 6 8 8 8 8 8 9 10 11 11 11 12 13 15 16 17 18 19 20 20 21 21 21 22 22 21 20 19 18
31 28 26 25 23 21 19 18 17 16 15 14 14 13 12 13 13 12 11 9 9 9 12 14 14 14 14 15 16 17 19 19 18 17 19 19 20 20 19 19 18 16 15
30 29 27 25 22 20 20 19 17 16 16 16 15 16 16 16 15 12 10 9 8 10 11 11 11 11 11 13 13 14 15 14 14 15 15 16 16 16 15 16 16 15 14
27 26 25 24 22 20 18 17 17 17 17 16 15 15 16 14 11 9 8 6 8 9 9 9 9 8 8 9 10 10 11 11 12 12 13 13 14 13 14 14 13 12 12
21 19 17 15 14 13 14 14 14 12 13 11 12 11 9 7 6 4 4 6 5 4 4 4 5 6 7 7 7 7 8 9 10 11 10 11 12 12 12 11 11 11 11

GFSGL_925_spd_285.txt.gz
Wind_Speed
15 16 17 19 19 20 21 22 24 25 25 26 26 28 29 29 29 31 33 34 32 30 30 29 33 25 32 31 25 23 29 19 10 2 10 24 25 33 45 42 42 45 39
15 16 17 18 19 20 22 23 23 25 26 25 28 28 28 28 29 30 31 29 31 30 30 30 30 30 28 20 33 27 24 22 19 5 12 14 17 23 23 33 39 39 40
14 15 16 18 20 22 23 22 22 22 24 25 24 25 27 28 29 30 30 29 29 29 26 29 30 19 24 24 23 20 20 25 25 12 7 9 11 14 15 15 14 17 21
12 13 17 20 22 23 24 22 21 22 24 24 24 26 26 27 28 29 29 27 26 26 26 26 22 24 22 21 22 21 24 23 22 20 11 8 5 8 12 15 11 12 15
12 15 18 20 22 24 23 21 20 22 24 26 27 25 26 26 25 23 24 24 24 24 23 23 24 24 26 24 17 21 21 22 16 15 6 7 8 10 13 13 14 24 22
10 12 16 19 22 24 24 22 21 22 24 25 26 28 28 26 28 25 20 21 23 22 21 22 21 25 25 21 23 28 29 26 19 13 9 4 6 16 22 23 23 16 4
10 10 14 17 21 22 23 20 22 23 24 24 26 28 27 28 26 19 6 16 16 19 22 20 18 21 20 22 23 23 25 27 27 27 20 14 16 25 31 25 19 12 7
9 8 10 15 17 20 21 18 20 21 22 23 26 28 25 26 24 19 9 0 3 7 14 21 22 21 19 18 15 13 10 9 16 14 18 21 18 25 27 27 25 25 28
9 7 8 10 13 16 18 17 18 20 19 21 25 27 28 29 26 20 18 19 21 19 10 5 8 10 12 19 21 24 23 20 11 8 10 13 19 28 30 34 26 28 8
10 8 6 7 10 14 16 17 18 17 18 17 20 24 27 28 31 25 21 19 19 18 21 21 15 16 17 19 25 26 23 20 27 32 34 29 25 24 24 23 28 20 14
10 9 7 5 7 10 13 14 15 16 18 19 17 21 27 30 31 30 25 25 19 19 21 21 22 21 21 21 23 24 27 28 27 33 33 33 29 25 20 20 11 19 12
11 9 7 3 2 4 7 9 11 13 14 17 18 18 21 23 24 26 26 25 22 22 21 23 26 29 29 27 28 24 23 28 27 25 24 24 26 24 23 20 17 14 7
13 10 8 5 2 2 4 8 9 11 12 12 12 13 16 20 21 19 19 19 21 24 21 19 20 23 24 27 24 23 25 24 22 22 21 21 20 25 24 23 19 17 17
16 13 11 8 4 1 3 4 5 6 7 8 10 11 12 16 21 21 18 19 20 22 21 22 21 24 25 25 24 23 23 22 23 23 22 25 25 24 21 20 21 20 23
19 16 13 10 7 4 2 3 4 5 6 6 7 10 11 12 15 14 15 16 15 15 17 19 22 23 24 23 24 23 22 21 25 23 22 21 21 19 16 14 18 10 11
22 21 18 15 12 9 6 3 3 2 2 4 6 4 5 5 7 11 11 10 9 9 14 15 16 17 18 17 18 18 17 18 18 18 18 17 16 14 14 12 10 11 15
24 19 18 18 14 13 12 10 8 5 4 3 1 2 3 2 4 7 8 9 9 8 12 11 11 11 11 11 11 11 11 11 12 13 13 13 13 12 10 9 9 10 10
31 22 23 22 19 16 15 13 11 8 7 6 5 4 2 0 1 3 5 5 7 9 9 8 8 7 7 7 6 6 8 8 8 8 9 10 10 11 10 8 7 8 8
31 24 25 19 20 18 15 12 11 10 9 6 6 6 5 4 2 3 4 4 4 4 4 4 3 3 2 3 4 4 5 5 5 6 6 7 8 7 7 7 8 9 10
30 26 25 22 20 19 18 15 13 12 11 10 10 9 7 6 5 5 5 3 2 2 3 2 2 2 2 2 2 3 4 5 6 6 7 8 9 10 10 12 12 12 13
27 26 28 23 23 23 19 16 14 14 13 12 12 11 8 6 6 7 7 6 6 6 6 5 5 6 6 6 7 7 8 8 10 11 12 12 12 13 13 11 12 14 11
23 23 27 24 21 20 20 20 18 16 15 15 14 14 13 12 8 8 8 6 6 6 5 5 5 5 6 8 9 10 11 12 12 13 14 14 14 14 13 14 14 13 14
20 21 21 21 20 19 19 18 17 17 15 16 14 13 14 15 11 9 9 8 7 6 5 4 4 5 6 7 8 9 9 9 10 11 11 12 13 13 14 14 14 14 15
17 18 18 19 19 19 18 17 17 17 16 16 15 15 15 13 14 12 10 9 10 7 5 4 4 4 5 5 6 6 7 8 10 9 10 11 12 12 12 12 13 12 12
9 9 10 12 14 15 13 13 14 13 14 15 13 12 10 9 8 8 9 9 8 6 4 5 5 4 3 3 3 3 3 4 4 5 6 7 9 10 10 11 11 10 11
7 7 7 6 6 7 7 7 7 6 6 6 5 3 3 5 4 3 3 3 2 1 3 4 4 4 4 4 4 4 4 3 3 4 4 5 6 6 7 8 8 8 9

GFSGL_925_spd_291.txt.gz
Wind_Speed
4 3 5 8 10 13 16 19 20 20 21 22 22 22 23 24 25 25 26 28 28 29 30 30 30 25 23 24 21 24 20 21 13 22 25 26 36 39 31 27 25 19 19
4 2 4 7 10 13 16 17 18 19 19 20 21 22 23 23 23 24 26 26 28 29 30 29 29 27 26 26 24 23 22 26 25 12 18 25 27 30 26 20 19 24 25
4 3 3 6 9 13 15 17 16 18 19 20 21 22 23 24 25 26 26 28 29 30 30 28 26 25 28 22 21 19 20 24 27 24 22 22 26 26 17 10 11 11 12
5 4 2 4 7 11 13 13 15 16 19 21 21 21 20 22 22 24 27 28 31 29 27 26 25 23 20 21 19 21 22 25 24 22 19 19 17 20 16 10 4 4 4
8 6 3 2 6 8 11 13 14 15 16 18 19 20 19 21 22 24 24 23 18 16 16 17 21 23 24 26 23 20 21 20 17 15 13 6 7 6 7 8 5 7 5
11 9 5 1 4 6 10 12 12 13 16 16 18 20 22 20 24 21 20 19 16 15 16 16 19 20 22 23 25 25 27 22 14 11 9 6 11 8 12 13 13 7 3
13 11 7 3 3 3 7 9 11 12 16 15 19 21 22 24 27 23 19 18 17 16 15 16 19 22 24 24 22 23 24 27 27 23 18 17 17 19 17 19 13 4 6
14 13 9 6 4 2 4 6 9 11 13 13 15 20 21 22 26 23 18 18 19 18 16 18 15 14 14 21 19 20 22 23 26 26 28 29 26 22 20 18 18 19 23
17 16 11 8 5 3 3 6 7 9 11 12 12 16 18 20 22 23 18 18 20 22 22 22 19 15 13 8 17 15 9 3 7 13 19 22 20 17 18 19 20 20 4
20 19 13 10 8 7 2 1 3 6 7 8 11 15 17 18 18 20 20 20 19 17 20 24 23 18 13 7 8 8 10 11 10 12 18 19 16 14 11 13 25 15 13
19 18 17 13 12 9 6 2 0 2 2 5 8 12 15 16 18 17 17 20 18 19 20 22 23 19 19 18 10 8 8 7 12 14 18 19 18 15 14 14 14 17 14
20 21 20 16 15 12 9 6 4 2 2 3 5 8 13 15 16 16 15 15 14 17 17 17 15 16 19 18 16 13 10 12 16 19 20 20 22 21 19 17 15 14 11
22 24 23 20 17 15 14 11 8 5 2 2 5 8 11 13 15 16 16 16 15 14 11 11 12 14 14 16 15 12 12 15 18 19 17 18 18 17 19 21 21 20 22
26 26 24 23 21 19 16 13 10 8 6 3 1 4 6 10 13 14 14 13 12 13 13 14 14 16 17 17 17 16 15 15 17 19 18 16 15 15 17 18 20 21 24
28 28 28 27 25 22 20 17 14 10 9 6 4 3 3 6 7 8 10 11 9 8 9 11 15 17 18 18 18 17 16 16 19 18 19 18 18 18 17 18 13 12 15
28 28 29 30 29 26 23 19 15 13 12 9 7 6 5 4 3 4 6 8 7 4 5 11 14 13 14 13 14 15 14 14 14 14 15 17 20 17 12 9 13 22 24
29 25 28 30 29 29 27 24 20 16 13 13 12 10 8 6 5 4 4 4 5 2 6 7 8 8 9 7 6 10 11 10 10 9 9 10 11 11 12 15 19 21 19
31 26 27 28 28 27 28 27 27 23 20 21 17 13 11 8 6 5 4 3 2 2 4 4 5 4 4 5 5 6 7 7 6 6 7 7 7 8 11 12 11 15 15
27 25 27 26 29 30 29 27 27 26 25 20 13 13 14 11 9 6 5 4 3 1 0 1 0 0 1 2 3 3 2 3 3 3 4 5 5 5 7 9 9 11 11
25 27 24 24 24 26 25 24 24 24 24 23 21 19 13 13 13 12 9 7 6 5 3 2 2 2 2 2 2 2 3 2 2 3 4 4 5 5 6 7 9 10 8
22 22 25 22 24 26 25 25 26 26 26 27 27 21 16 16 14 11 8 7 5 5 4 4 4 4 4 4 4 4 4 4 4 4 5 6 7 8 8 8 8 8 7
18 19 20 22 21 22 24 25 27 27 27 26 25 20 16 17 16 14 11 10 9 8 8 6 6 5 6 6 5 6 7 6 5 6 5 7 8 9 9 10 10 10 10
11 15 16 18 18 20 19 22 23 24 24 23 21 18 17 20 19 17 14 11 11 12 11 9 8 8 7 7 8 8 8 8 7 7 7 8 8 9 9 10 9 9 9
4 7 9 11 13 15 16 19 20 20 18 17 15 15 15 16 17 16 13 11 11 13 12 9 8 8 8 8 8 8 9 9 9 10 9 8 8 8 8 8 9 9 9
9 5 1 3 6 8 9 11 11 12 10 9 8 8 8 7 8 7 8 9 10 10 8 6 6 6 6 6 6 6 6 7 7 7 8 8 8 8 7 8 8 8 8
21 19 18 15 14 10 8 8 9 9 9 9 9 8 8 8 7 6 5 5 5 4 3 2 1 2 3 4 4 4 4 4 4 5 6 7 7 6 7 7 8 9 9